Regional Weather Roundup
Issued by NWS

Home | Current Version | Previous Version | Graphics & Text | Print | Product List | Glossary On
Versions: 1 2 3 4 5 6 7 8 9 10 11 12 13 14 15 16 17 18 19 20 21 22 23 24 25 26 27 28 29 30 31 32 33 34 35 36 37 38 39 40 41 42 43 44 45 46 47 48 49 50
000
ASUS44 KMEG 262000
RWRTN
TENNESSEE HOURLY STATE WEATHER ROUNDUP
NATIONAL WEATHER SERVICE MEMPHIS TN
300 PM CDT TUE MAY 26 2015

TNZ002-004-019-021-049-052-054-088>092-262100-
WEST TENNESSEE

CITY           SKY/WX    TMP DP  RH WIND       PRES   REMARKS
MEMPHIS INTL   MOSUNNY   80  63  55 SW12G17   30.05F
JACKSON        PTSUNNY   80  63  55 SW13      30.03F
DYERSBURG      PTSUNNY   79  55  44 SW17G24   30.04S
PARIS          MOSUNNY   79  63  57 S14       30.02F
LEXINGTON      SUNNY     79  64  61 S12       30.03F
$$

TNZ008-025-027-028-033-062-065-066-262100-
NORTH MIDDLE TENNESSEE

CITY           SKY/WX    TMP DP  RH WIND       PRES   REMARKS
NASHVILLE      TSTM      68  67  96 S7G21     30.06R
CLARKSVILLE    CLOUDY    79  67  66 S13       30.00F
COOKEVILLE     MOSUNNY   82  68  61 S14       30.06S
CROSSVILLE     PTSUNNY   77  66  68 S8        30.14S
$$

TNZ061-075-076-078-094-096-097-262100-
SOUTH MIDDLE TENNESSEE

CITY           SKY/WX    TMP DP  RH WIND       PRES   REMARKS
FAYETTEVILLE   MOSUNNY  N/A N/A N/A MISG      30.08S
TULLAHOMA      PTSUNNY   79  66  65 S9        30.09R
WINCHESTER     MOSUNNY   81  68  65 S13       30.09R
MCMINNVILLE    MOSUNNY   82  68  61 S7        30.08R
COLUMBIA       CLOUDY    79  72  78 S10       30.04F
SHELBYVILLE    PTSUNNY   79  73  83 S13       30.07F
$$

TNZ017-018-042-046-047-262100-
NORTHEAST TENNESSEE

CITY           SKY/WX    TMP DP  RH WIND       PRES   REMARKS
TRI CITIES     PTSUNNY   86  61  42 SW10G18   30.16F
ELIZABETHTON   PTCLDY    82  63  51 S8        30.16F
$$

TNZ012-013-036-069-073-074-262100-
CENTRAL EAST TENNESSEE

CITY           SKY/WX    TMP DP  RH WIND       PRES   REMARKS
KNOXVILLE      PTSUNNY   88  61  40 S15G26    30.09F
OAK RIDGE      MOSUNNY   85  69  58 VRB3      30.11F
GATLINBURG     CLEAR     88  61  40 S14       30.09F
$$

TNZ083-085-099-262100-
SOUTHEAST TENNESSEE

CITY           SKY/WX    TMP DP  RH WIND       PRES   REMARKS
CHATTANOOGA    CLOUDY    75  69  81 VRB7G16   30.12R
$$

SKY/WX REPORTED AS FAIR MEANS FEW OR NO CLOUDS BELOW
12 THOUSAND FEET.



USA.gov is the U.S. government's official web portal to all federal, state and local government web resources and services.